Theta_e
321 325 328 329 330 331 330 329 329 326 326 328 327 326 325 324 324 327 326 329 347 352 350 353 352 353 353 350 352 354 353 353 352 352 352 351 351 351 351 350 350 351 350 349 349 348 346 346 347 347 345 340 336 332 329 331 333 337 338 339 339 338 336 334 334 335 336 338 338 339 340 342 344 344 345 346 345 345 344 341 340 341 342 343 344 343
324 327 329 329 329 329 328 326 326 325 326 327 328 326 325 325 324 326 325 324 339 349 347 353 353 352 353 350 352 354 352 352 352 352 351 352 351 351 350 350 350 350 350 349 349 348 347 347 347 347 347 345 342 337 332 330 331 335 337 338 339 338 335 334 334 335 337 337 338 338 339 341 343 344 345 346 345 346 346 342 340 341 342 343 344 343
325 327 328 329 328 328 326 324 324 325 326 326 327 327 325 325 324 324 325 326 337 344 343 349 350 347 350 350 351 354 353 353 352 352 351 351 351 350 350 349 350 349 350 349 349 349 348 348 348 348 347 346 345 343 338 333 331 332 335 337 338 338 336 334 335 336 337 338 338 338 339 340 343 343 344 346 346 347 346 342 339 341 341 341 343 343
326 327 328 329 327 327 326 324 325 326 327 327 328 326 325 325 324 321 323 328 336 340 340 345 343 340 345 349 350 352 353 353 353 352 351 351 350 351 350 349 349 349 349 350 349 349 349 348 348 348 347 346 346 345 343 340 335 332 333 335 336 337 336 335 334 336 338 339 340 340 340 340 342 343 344 346 346 346 344 341 339 341 341 341 342 343
327 327 327 327 326 328 328 326 326 328 328 327 326 327 326 326 326 323 323 325 329 332 338 340 332 332 341 345 347 350 352 353 353 353 352 351 351 350 350 349 348 349 348 349 349 349 348 349 348 348 347 347 346 345 345 344 341 335 332 334 335 335 337 336 335 336 337 339 341 341 341 340 341 342 343 345 345 344 342 340 339 340 342 342 342 342
328 325 325 326 325 327 328 327 328 328 327 326 326 327 327 327 327 326 325 324 322 322 331 335 325 327 339 345 346 348 350 351 352 353 352 351 351 350 349 350 348 348 348 348 348 348 348 349 348 347 347 347 347 346 345 345 344 340 335 334 334 335 336 336 336 336 337 339 340 341 340 338 338 340 341 344 344 343 341 341 340 339 340 341 343 342
325 322 323 326 325 326 327 328 326 326 326 325 325 326 326 327 327 326 326 323 320 319 327 333 324 323 332 339 345 349 350 351 351 352 353 351 351 350 350 350 349 348 348 347 348 348 348 348 348 348 347 347 346 346 345 345 345 344 340 336 335 334 335 336 336 336 337 338 339 340 340 337 335 337 339 342 343 342 343 345 344 341 339 341 342 343
323 321 321 324 325 325 326 326 325 325 326 324 324 325 325 326 326 326 326 323 322 320 324 334 331 325 327 335 345 349 349 352 352 351 352 353 352 351 350 349 349 348 348 348 347 347 347 348 348 347 347 347 346 345 345 345 345 345 343 339 336 335 334 335 336 336 337 338 338 339 340 338 335 335 337 342 344 344 344 346 345 341 340 341 342 343
319 319 320 323 323 324 325 325 324 324 325 324 323 323 325 326 326 326 325 322 322 319 319 330 334 327 326 337 347 351 350 350 350 350 352 353 352 351 351 350 350 349 349 348 348 347 347 347 347 346 347 347 345 345 345 346 345 345 345 343 340 337 335 334 335 336 337 337 338 338 339 338 336 334 336 341 344 345 345 345 345 341 340 341 342 343
315 316 317 320 321 321 321 320 322 324 325 324 322 322 323 324 323 324 324 321 320 319 318 326 332 325 324 335 342 344 344 342 343 345 348 353 352 352 352 350 350 349 349 349 349 348 347 347 346 346 346 346 345 346 345 346 345 345 345 345 343 341 337 335 334 335 335 336 337 337 338 338 336 334 335 338 344 346 344 344 343 340 339 339 338 340
314 315 316 316 315 316 316 315 319 323 323 322 322 323 322 322 323 322 323 321 319 320 318 322 330 325 323 331 334 336 340 341 343 343 345 350 352 351 352 351 351 350 349 349 348 349 348 347 347 346 346 346 346 346 346 346 346 346 345 345 345 344 341 338 335 334 335 335 336 336 336 336 336 335 334 335 340 344 343 343 342 339 337 336 335 336
314 315 315 314 314 314 314 314 316 318 320 321 322 323 320 320 323 320 320 321 319 320 318 318 328 327 325 330 331 335 342 343 343 343 342 345 348 351 352 351 351 350 350 349 349 349 348 348 347 347 346 346 346 346 346 346 346 346 346 345 345 345 344 341 338 336 335 335 335 336 335 336 336 336 335 334 336 340 342 341 341 338 336 336 335 334
314 314 313 314 313 313 314 315 316 316 318 321 321 320 319 319 320 319 320 319 319 320 318 318 327 329 327 330 332 338 343 341 342 343 342 343 345 347 349 350 351 350 350 349 349 349 349 348 348 347 347 347 346 346 346 346 346 346 346 346 345 346 345 344 341 338 336 334 334 335 335 335 336 335 335 334 334 337 339 340 339 337 335 335 334 334
313 313 313 314 314 313 314 316 316 316 318 320 320 320 319 319 320 320 320 319 319 319 317 321 328 329 327 329 333 339 341 341 343 343 343 343 343 344 346 349 351 350 350 350 349 349 349 348 348 347 347 347 347 347 347 346 346 346 347 346 346 346 345 345 343 342 339 336 334 333 334 334 335 335 335 335 334 335 337 339 339 337 335 335 334 334
313 314 313 313 313 313 314 314 314 314 316 317 318 320 320 319 320 320 319 318 318 317 318 323 326 326 327 329 331 338 341 340 341 342 343 344 343 343 345 347 350 351 351 350 350 350 349 349 348 347 347 347 347 347 346 346 346 347 347 347 347 347 346 345 344 343 342 340 337 334 333 332 333 334 334 335 334 334 335 337 338 337 336 335 335 334
313 313 312 312 313 312 313 313 313 314 315 316 316 318 319 318 320 321 318 319 318 317 320 323 322 323 327 328 331 337 341 340 338 340 343 343 343 343 343 344 347 349 350 350 350 350 349 349 348 348 348 347 347 347 347 347 347 347 347 347 348 347 347 346 345 344 343 343 341 338 335 332 331 332 333 334 334 333 334 335 336 337 336 335 335 333
314 313 312 312 312 312 312 312 313 314 315 317 317 317 317 316 319 321 319 319 319 317 319 321 321 323 324 325 331 337 339 339 337 338 341 342 343 343 342 343 343 345 348 349 350 350 350 349 349 348 348 348 348 348 347 347 347 347 347 347 348 348 347 346 345 345 344 343 344 342 338 334 330 330 331 333 334 333 333 333 334 335 335 335 335 334
313 313 312 312 312 312 312 312 313 314 314 316 316 316 316 316 318 321 320 319 317 316 320 321 322 325 326 326 333 337 339 338 335 335 339 340 341 342 342 342 342 343 345 346 349 350 349 349 349 349 348 348 348 348 348 348 347 348 348 348 348 348 348 347 346 345 345 344 344 345 341 337 332 329 329 331 333 333 333 333 333 334 333 333 333 333
312 313 312 311 311 311 312 313 314 314 314 315 315 315 316 317 319 321 320 319 317 317 321 322 322 324 326 327 333 337 338 338 336 335 335 336 339 340 341 341 341 342 343 344 347 349 350 350 349 349 348 348 348 348 348 348 348 348 348 348 348 348 347 347 347 346 345 345 344 345 344 341 336 331 328 329 331 332 333 333 332 332 331 330 330 331
312 313 313 312 311 311 313 314 313 313 314 314 314 314 315 317 319 320 320 319 318 320 322 323 322 322 322 325 332 337 337 337 337 335 334 335 336 338 339 340 341 341 342 344 345 347 350 350 349 349 349 348 348 348 348 348 348 348 348 348 348 348 348 348 347 347 346 345 345 345 345 344 342 338 332 329 329 330 332 332 331 331 330 329 328 328
313 313 313 312 312 312 312 312 311 311 312 313 314 314 314 316 317 318 319 318 319 321 322 323 323 321 320 323 331 336 335 335 336 336 335 335 335 335 336 337 340 341 341 343 345 347 349 350 350 349 348 348 348 348 348 348 347 347 347 348 348 348 348 348 348 347 346 346 345 346 346 345 345 343 339 334 330 328 330 331 331 330 330 328 328 327
313 313 312 313 313 312 311 310 310 310 311 312 312 312 312 314 316 319 319 318 318 320 322 323 323 318 317 324 331 334 334 335 336 336 335 334 334 334 334 335 337 340 341 342 345 348 349 350 350 349 348 348 348 348 348 347 347 348 347 348 348 347 348 348 348 347 346 346 346 346 346 346 346 345 344 341 335 330 329 330 331 330 329 329 327 327
313 313 314 313 311 311 310 310 311 310 310 311 311 312 312 312 315 318 320 319 318 319 320 323 323 318 318 326 332 334 335 335 335 335 335 334 334 334 333 333 335 337 340 342 344 346 349 350 351 350 349 349 348 348 348 347 347 348 348 348 347 347 348 347 348 347 347 346 346 346 346 346 346 346 345 345 341 336 331 329 329 330 330 329 328 327
313 313 314 314 312 311 310 310 311 311 310 311 311 311 312 312 312 313 316 319 318 318 319 323 324 319 318 326 333 334 334 333 333 333 333 333 334 333 333 332 332 333 338 342 344 345 346 349 350 350 351 350 348 348 347 347 347 347 347 347 347 347 348 348 348 347 347 346 346 346 346 346 347 346 346 345 344 343 338 333 330 328 329 329 329 328
312 313 314 315 314 313 313 312 312 311 311 311 310 311 311 312 312 312 315 319 319 317 317 321 324 319 318 327 332 332 333 333 332 332 332 333 333 333 333 333 331 329 332 337 342 344 346 347 347 349 350 350 349 348 347 347 347 347 347 346 347 347 347 347 348 347 347 347 346 346 346 346 346 347 346 346 345 345 344 341 337 333 330 328 328 328
312 312 313 315 314 314 315 315 313 313 312 310 310 311 311 311 312 313 316 319 320 318 316 319 320 316 318 327 330 330 331 331 331 331 331 331 332 332 333 333 332 329 328 330 334 339 343 345 346 347 348 349 350 349 348 347 347 347 347 347 347 347 347 346 347 347 347 347 346 346 346 347 347 347 347 347 346 346 345 345 343 341 338 335 332 330
312 311 312 314 314 313 314 313 311 312 311 310 311 311 310 311 311 313 315 317 318 317 316 318 317 314 320 328 329 328 329 328 329 330 329 330 331 331 331 333 333 331 327 326 327 331 336 341 345 347 348 348 349 349 349 348 348 347 346 347 347 346 346 347 346 347 347 346 347 347 346 347 347 347 347 347 347 346 346 345 345 345 344 342 340 338
313 311 312 313 312 310 311 310 310 311 311 310 311 310 310 311 311 312 315 314 315 316 317 318 317 316 322 327 327 328 328 327 328 329 328 329 329 330 330 331 332 331 328 326 325 326 328 333 338 343 346 347 348 348 348 348 347 347 347 347 347 347 347 347 347 347 347 347 346 346 347 347 347 347 347 347 347 347 346 346 346 345 345 344 344 343
312 311 310 311 310 309 309 310 310 310 310 310 310 310 310 310 311 312 312 312 313 315 315 317 318 322 325 326 327 328 327 327 328 328 327 327 328 329 330 329 330 331 329 327 325 323 324 325 329 334 340 344 347 348 348 348 347 347 347 346 346 346 346 347 347 347 347 347 346 347 348 348 347 347 347 347 347 347 347 346 346 346 346 345 345 345
312 311 310 310 310 310 310 310 310 309 310 309 309 309 309 309 310 311 311 312 313 313 315 318 322 325 325 325 326 327 327 327 327 327 327 326 326 328 328 328 329 329 329 328 326 324 323 323 324 325 330 336 341 345 347 348 348 347 347 346 346 346 346 346 347 348 347 347 348 348 348 347 347 347 347 347 348 348 347 347 346 346 347 346 346 346
313 314 312 310 310 310 310 310 309 310 310 309 309 309 309 309 310 310 311 313 314 316 321 324 325 325 324 324 326 327 327 327 326 327 326 325 326 326 326 327 327 328 328 328 327 326 323 323 322 323 324 328 332 337 342 346 348 349 349 347 346 346 346 346 346 347 347 348 348 348 347 347 347 347 347 348 348 347 347 347 347 346 347 346 346 346
312 312 311 310 309 310 310 310 310 310 309 308 309 310 310 309 310 311 311 313 317 322 324 322 323 325 324 324 325 326 326 326 326 325 326 325 325 325 325 325 326 326 326 327 327 327 325 324 324 322 322 323 324 328 335 341 345 348 350 349 348 346 346 346 347 346 346 348 348 348 348 348 347 347 348 348 347 348 347 347 347 347 347 347 347 347
312 311 311 310 310 310 310 310 311 310 308 308 310 311 310 311 311 311 312 317 321 324 322 320 322 325 324 323 323 323 325 326 325 324 325 325 324 325 325 325 325 325 324 325 326 327 327 326 326 324 322 322 322 323 327 334 341 346 349 351 351 349 347 346 347 346 346 347 347 347 348 347 347 347 347 348 348 348 348 348 347 348 347 347 347 347
312 312 312 312 311 311 311 311 311 309 308 309 310 310 311 313 312 311 312 319 323 324 323 323 324 324 323 323 322 322 323 324 324 324 323 323 323 323 324 324 324 324 324 323 323 326 327 327 326 325 323 322 323 323 323 328 335 341 346 350 353 352 349 348 347 346 346 346 347 347 347 347 347 347 347 348 348 348 348 348 348 348 348 348 348 348
312 312 312 312 312 312 312 312 310 309 309 310 310 312 315 315 314 314 315 319 322 322 322 322 323 323 323 322 322 322 322 322 323 323 322 321 322 322 322 323 323 323 324 322 322 324 327 327 327 326 324 322 322 323 323 323 327 334 340 346 352 354 352 351 349 347 347 347 346 347 347 347 348 348 348 348 348 347 348 348 348 349 349 348 349 349
312 312 313 313 312 312 312 310 309 310 311 311 311 315 317 316 316 316 317 320 321 320 320 320 321 322 322 322 321 321 321 321 323 324 322 320 320 321 321 321 322 322 323 323 322 322 324 326 327 327 325 323 322 323 323 322 325 329 333 338 345 351 352 353 352 350 348 348 348 347 347 347 348 348 348 348 348 348 348 349 349 349 349 349 349 350
313 312 313 313 312 312 312 311 312 311 311 312 314 315 316 316 316 315 315 318 320 319 319 319 319 320 321 321 321 320 320 322 324 325 322 320 319 320 320 320 320 321 322 322 322 321 322 324 327 327 327 325 323 323 322 322 323 327 330 333 338 343 346 349 352 353 352 351 349 349 348 348 348 349 349 349 349 349 350 350 350 350 350 351 350 350
313 313 313 313 313 312 312 312 313 311 311 314 316 316 316 316 317 316 315 316 317 317 317 318 317 318 318 318 319 319 320 322 324 324 321 319 318 319 319 319 319 320 321 321 322 322 321 321 324 326 327 326 326 324 323 322 322 324 329 332 336 339 342 344 347 351 353 353 352 351 350 349 349 349 350 350 350 350 351 352 352 352 352 353 353 353
312 313 313 312 313 313 312 313 312 311 312 315 316 315 315 315 316 316 314 315 316 315 315 316 316 316 317 317 317 318 318 320 321 321 320 318 318 318 318 318 319 319 319 320 321 322 322 321 322 323 325 326 327 326 324 322 322 323 324 329 334 338 340 342 344 348 353 354 353 352 352 352 352 351 351 351 351 351 352 353 353 354 354 354 354 354
312 313 313 312 313 313 312 312 312 312 313 315 315 315 314 314 315 314 312 316 316 313 314 316 315 315 316 316 316 316 317 318 318 318 318 316 316 317 318 318 317 318 318 319 320 321 322 322 321 321 323 324 325 326 326 324 323 322 323 326 330 334 338 341 343 346 352 353 353 353 353 354 355 354 353 353 353 353 353 354 354 355 355 355 355 355
313 314 313 312 312 313 313 312 313 313 313 314 315 315 314 314 314 313 313 316 315 313 314 315 315 315 315 315 315 316 316 316 316 315 315 314 315 315 316 317 317 317 317 318 319 320 321 322 322 321 321 322 323 325 327 327 325 322 321 323 324 327 332 337 339 342 347 350 353 354 355 356 357 357 357 356 356 356 355 355 355 356 356 357 357 357
313 314 313 313 313 313 313 313 313 313 314 315 315 315 314 313 313 314 313 313 312 313 314 314 314 314 314 314 314 315 315 314 314 313 313 313 313 314 314 314 316 316 316 317 318 319 320 321 322 321 321 321 322 323 325 327 327 324 321 320 321 321 325 331 335 338 341 344 348 352 355 356 357 357 357 358 358 358 358 358 358 358 358 358 358 358
313 313 313 313 313 313 313 313 314 314 315 315 314 314 314 314 313 313 313 311 311 312 314 314 314 314 313 313 313 313 312 312 312 312 312 311 312 313 312 312 314 315 316 316 316 317 319 320 321 322 321 321 321 321 323 326 328 326 321 319 320 320 321 326 332 335 337 339 341 345 350 354 356 356 356 356 356 357 358 358 358 358 358 358 358 359
313 313 313 314 313 313 313 314 314 314 315 315 314 314 315 314 313 311 311 312 313 312 313 313 313 312 311 311 311 311 311 311 311 311 312 311 311 312 312 312 312 313 314 315 315 316 317 319 320 321 321 321 321 321 321 323 326 327 323 320 320 320 320 324 329 333 335 337 338 340 343 347 351 355 356 356 356 357 357 358 357 357 356 356 356 358
313 313 313 313 313 312 313 314 313 313 314 314 313 313 313 313 311 309 309 310 312 312 312 312 311 310 310 310 310 310 310 310 311 311 311 311 311 310 311 311 311 311 312 313 314 315 316 317 318 319 321 321 321 321 321 321 324 327 327 324 321 320 320 322 327 332 335 336 337 338 340 342 345 350 355 356 356 356 357 359 359 358 357 357 356 357
312 311 311 312 313 312 312 312 312 312 313 313 312 311 311 311 310 309 309 309 310 310 310 309 309 309 308 308 309 309 310 310 311 310 311 311 311 310 310 310 310 310 311 312 313 314 315 315 316 317 319 321 321 321 321 320 321 325 328 328 325 321 320 322 327 332 334 336 336 337 338 340 342 345 350 354 356 356 356 359 362 362 360 359 358 357
311 310 311 312 312 312 312 314 313 312 312 313 312 311 311 311 310 309 308 308 308 307 307 307 307 307 307 307 308 308 309 310 310 310 310 311 311 311 311 311 310 310 310 310 311 313 314 314 314 315 317 319 320 321 321 320 320 322 325 328 328 324 320 321 327 331 333 335 336 335 335 338 341 343 345 349 353 357 358 360 363 363 362 361 361 360
312 310 311 313 312 312 313 314 312 311 311 311 312 312 311 310 310 309 308 308 308 307 307 306 306 306 306 306 307 308 309 310 309 310 310 310 311 311 311 311 311 310 310 310 310 311 312 313 314 314 314 317 319 321 321 320 320 320 322 325 327 326 321 320 324 329 332 334 336 336 335 336 338 341 343 346 350 354 358 360 362 362 362 362 363 362
311 311 312 313 313 312 313 313 312 311 311 311 310 311 310 310 310 309 308 308 307 307 306 306 306 306 306 305 305 307 309 309 309 309 310 310 310 310 310 311 310 310 310 310 310 310 311 312 312 313 313 315 318 320 321 320 320 320 320 322 325 326 324 321 320 325 331 334 334 336 337 336 337 338 341 343 346 351 356 359 361 362 362 362 362 363
311 312 312 312 312 313 313 314 313 312 313 312 311 310 309 309 309 308 308 308 308 307 307 307 307 306 305 305 305 307 308 309 309 309 309 309 310 309 310 311 310 310 310 310 310 311 310 311 312 312 312 314 317 320 320 320 320 320 320 320 322 324 325 323 320 322 329 332 333 334 336 337 337 338 339 341 344 347 351 355 358 361 362 362 362 363
311 313 312 312 313 314 313 313 312 312 312 312 311 309 309 309 309 308 308 309 308 307 307 308 307 306 305 305 306 307 308 308 308 308 309 309 309 309 310 310 311 311 310 310 310 311 310 310 311 311 312 313 316 318 319 320 320 320 319 319 320 321 323 324 323 323 327 331 332 332 335 337 337 337 338 340 342 344 348 351 354 358 361 362 363 363
Wind_Speed
10 7 6 6 5 5 4 4 2 3 4 3 3 3 2 1 0 0 2 0 7 7 6 9 9 9 6 6 9 13 15 16 16 17 18 20 21 22 23 23 23 24 24 23 26 28 27 25 24 23 23 23 22 22 22 22 22 22 21 21 20 19 20 20 20 21 20 20 19 17 16 15 15 14 13 11 10 8 8 7 6 5 5 4 4 3
8 7 6 5 5 4 2 3 3 3 3 2 1 1 0 1 1 2 3 2 6 7 4 6 8 10 9 7 9 12 14 16 19 20 20 22 22 23 24 24 24 23 22 21 23 27 28 27 25 24 23 24 23 22 23 23 23 22 22 22 21 20 20 21 22 21 21 20 19 17 16 15 15 14 13 11 10 8 8 7 7 6 6 5 4 4
7 6 5 6 5 3 3 3 3 3 3 2 1 1 1 1 1 1 3 3 5 5 2 3 6 9 9 7 10 14 16 18 22 23 22 23 23 23 24 25 24 23 21 22 24 26 28 28 27 26 25 24 23 21 21 23 23 23 23 23 22 21 21 22 22 22 21 20 18 17 15 14 14 14 13 12 11 9 8 8 8 7 7 6 5 4
6 4 7 6 5 5 3 3 3 3 3 2 2 3 2 0 1 2 3 5 4 4 2 1 4 7 6 6 9 15 19 18 20 22 21 21 24 25 25 24 24 24 24 24 24 26 26 27 29 29 27 25 24 23 22 22 24 24 24 24 23 22 22 22 23 23 21 20 18 17 15 14 14 14 14 13 12 11 9 9 9 8 8 7 6 5
4 4 7 7 5 6 4 4 4 3 3 2 3 5 3 2 3 2 2 3 2 4 2 1 3 3 3 4 7 11 16 16 17 19 19 20 23 23 22 23 24 26 26 26 26 27 27 28 30 31 29 27 26 25 23 22 23 24 24 24 24 23 23 23 23 23 22 21 19 18 16 16 16 16 16 15 14 12 11 10 9 8 8 7 7 6
3 4 8 7 6 6 5 5 5 5 4 3 5 7 5 4 5 3 1 2 2 2 1 2 3 1 1 2 4 7 11 14 15 18 20 21 22 22 23 24 25 25 26 27 28 28 29 30 32 33 31 29 28 27 25 22 22 23 23 24 24 25 24 24 24 24 24 22 21 19 18 17 18 18 18 16 15 13 11 10 9 8 8 8 7 7
2 4 6 7 7 7 5 5 4 5 5 3 4 7 8 7 6 5 2 2 2 1 1 2 3 0 1 1 2 5 10 12 13 16 20 21 22 24 25 25 25 25 26 27 28 28 30 32 34 35 34 32 30 27 25 24 23 22 23 24 24 25 25 24 24 25 25 24 22 20 19 18 18 18 17 16 14 13 12 11 10 9 9 9 8 8
3 4 4 5 7 6 5 5 5 7 6 2 3 6 9 10 8 6 4 2 1 1 0 2 2 2 1 2 3 2 8 10 11 12 15 18 20 23 25 25 26 27 27 27 28 29 31 33 35 36 35 33 30 27 26 26 25 23 23 23 24 25 26 25 25 25 26 25 24 22 20 19 18 17 16 15 14 14 13 12 11 10 10 10 9 9
1 3 4 6 6 5 5 4 6 10 6 2 4 5 7 7 7 5 3 2 0 2 1 2 2 2 1 3 6 3 1 3 5 8 11 16 19 21 24 25 26 27 28 28 29 31 33 35 36 36 35 32 30 29 28 27 26 25 23 23 24 25 26 26 26 26 26 26 25 23 22 20 19 17 16 16 15 15 15 14 13 12 12 11 10 10
1 2 3 4 3 2 2 1 6 12 6 2 5 4 4 4 3 3 2 2 2 2 3 4 5 3 2 5 8 6 6 9 8 7 9 16 20 21 23 25 26 27 28 30 30 31 34 37 37 35 35 33 31 31 29 27 27 26 25 25 24 25 26 26 27 27 27 27 26 25 23 21 20 18 17 17 17 17 16 15 15 14 13 12 11 10
1 3 4 4 3 3 3 2 3 9 3 5 7 5 4 4 3 2 1 2 2 3 3 3 6 5 0 5 7 7 8 11 9 8 8 10 17 22 23 23 24 25 27 29 31 31 33 36 37 36 36 35 34 33 31 29 29 29 28 27 26 25 25 26 27 28 28 28 28 27 25 23 21 19 18 19 19 18 18 17 17 16 15 13 12 11
4 4 2 2 4 5 2 1 1 2 1 2 4 4 4 3 3 2 2 2 4 3 1 1 6 6 2 3 6 7 10 12 10 9 11 11 11 17 23 24 24 25 26 26 28 30 30 33 36 37 37 36 36 36 34 32 32 31 30 29 28 27 27 26 27 28 29 29 28 27 26 25 23 21 20 19 19 19 18 18 18 17 16 15 13 12
5 4 4 2 3 9 4 4 4 3 4 4 4 4 5 3 4 4 3 3 4 2 1 1 6 4 2 4 6 9 11 13 12 11 11 13 14 12 14 23 26 25 26 27 28 30 30 33 38 39 38 38 38 37 36 35 34 33 32 31 30 30 28 27 27 27 28 30 29 28 27 26 25 23 22 20 20 19 19 18 19 19 18 16 15 13
3 2 6 5 2 10 8 1 3 3 4 5 5 5 5 4 5 6 4 2 3 2 1 2 4 4 5 5 6 9 11 12 13 14 13 13 14 15 12 15 24 25 26 28 28 31 33 36 39 40 40 40 39 38 37 37 36 35 33 32 31 31 30 29 28 27 27 28 29 29 28 27 26 25 24 22 20 20 20 19 19 19 19 17 15 14
1 4 5 6 3 7 8 3 2 1 2 2 1 2 3 4 4 5 4 4 5 4 3 2 3 3 6 4 5 6 10 14 15 17 18 18 18 17 16 8 14 23 26 28 28 30 35 39 41 41 42 41 40 40 39 39 38 36 34 33 31 31 31 31 30 29 27 26 27 29 29 28 27 26 25 23 22 21 21 20 20 19 19 18 16 14
1 3 4 5 3 4 6 5 3 2 2 2 1 2 2 1 1 1 2 2 3 4 3 3 2 3 6 6 8 8 9 15 18 21 23 24 23 21 20 18 10 10 18 25 28 30 34 39 42 41 42 42 41 41 41 41 39 38 35 33 32 31 30 31 31 30 28 26 26 27 28 28 27 27 27 25 24 22 21 21 20 19 19 19 17 15
1 3 4 5 1 1 7 6 3 3 0 2 2 2 1 2 2 1 2 1 1 5 3 2 3 4 4 3 10 12 10 15 19 23 25 24 25 24 22 21 19 14 10 16 24 30 35 38 41 42 42 43 43 42 42 42 40 38 36 34 33 32 31 31 31 31 30 28 26 25 26 27 27 27 27 27 25 23 22 21 21 20 20 20 19 17
0 3 2 5 2 3 9 4 2 5 4 1 2 2 2 0 1 1 2 3 4 7 3 3 5 5 1 1 9 14 14 16 17 19 22 25 26 26 24 22 22 20 14 12 17 24 32 37 40 42 42 43 44 44 43 42 40 38 36 34 33 33 32 31 31 31 31 30 28 26 25 25 26 26 27 28 27 25 23 22 21 21 21 20 20 18
2 1 3 3 3 5 9 2 3 5 8 3 2 2 1 2 2 1 2 4 6 7 4 4 5 6 4 3 9 14 15 14 14 15 18 22 25 25 25 26 26 24 19 13 14 19 25 32 37 41 42 42 43 44 43 42 41 40 39 37 34 33 32 30 30 31 31 31 30 28 26 24 24 25 26 28 28 26 25 24 23 22 21 21 21 20
2 0 2 2 4 4 5 5 1 5 6 2 2 1 1 1 1 1 0 1 3 5 5 4 3 4 5 5 8 11 12 12 12 13 14 18 22 23 24 26 26 26 25 19 11 16 20 25 32 35 38 40 41 42 42 41 41 41 41 39 37 36 34 33 32 31 31 31 31 30 28 25 24 24 25 26 28 27 27 25 24 24 23 22 22 21
2 1 1 3 5 1 2 5 4 6 5 2 1 3 3 2 1 1 1 2 1 3 4 5 4 4 4 4 7 10 10 10 11 11 12 16 20 21 23 24 26 26 26 25 14 6 14 21 27 30 32 37 40 41 41 41 41 42 42 41 40 38 36 35 34 33 32 32 32 31 30 28 25 24 24 25 27 28 28 27 26 25 24 24 24 22
2 1 1 2 4 4 4 3 3 6 7 6 4 3 3 2 1 3 3 1 1 1 1 3 5 5 4 4 6 8 9 9 11 11 12 15 17 20 23 25 27 28 28 28 22 10 3 13 21 25 29 34 37 39 40 41 41 42 42 42 41 40 38 37 35 35 34 33 33 32 31 30 28 26 25 25 26 27 28 28 28 27 26 26 25 24
1 1 3 4 4 3 4 2 2 3 3 5 6 5 3 2 2 2 2 3 2 1 1 2 4 5 4 6 7 7 8 9 11 12 13 14 15 17 21 27 33 34 33 32 28 19 11 5 9 16 23 31 36 37 38 40 41 42 42 42 42 41 40 38 36 35 34 33 33 32 31 31 30 29 27 27 26 26 27 28 28 28 28 27 27 26
1 1 3 4 3 0 4 3 1 3 1 2 6 7 5 3 3 2 1 1 1 2 1 2 4 5 4 7 8 7 9 10 11 13 13 14 16 17 18 25 36 40 39 38 34 26 17 10 7 6 9 21 31 35 36 38 40 41 41 41 42 42 41 39 38 36 35 34 33 33 33 33 32 31 30 29 28 26 26 27 27 28 28 28 28 27
1 0 1 3 3 2 4 4 3 1 2 2 4 7 8 8 5 1 0 1 1 2 2 1 4 5 4 6 8 8 9 10 12 14 14 14 16 18 17 20 32 41 43 42 39 33 25 16 10 6 3 7 20 27 32 36 37 38 40 41 42 42 41 41 40 38 36 35 35 35 34 34 34 33 32 31 29 28 26 26 27 27 27 28 29 28
1 1 0 2 3 4 3 2 2 1 2 2 3 7 8 10 8 2 0 0 2 2 3 1 4 5 5 5 8 9 9 10 12 14 14 15 16 17 18 18 23 35 42 43 42 40 34 26 19 13 9 4 7 14 22 31 35 36 38 39 40 41 41 41 41 40 38 37 37 37 36 35 35 35 33 32 30 29 28 27 27 27 27 27 28 29
2 3 2 2 2 2 2 3 1 1 1 2 3 7 7 8 9 4 0 1 2 1 1 3 3 2 4 7 8 10 10 10 12 14 15 16 17 18 19 19 19 28 38 41 41 41 39 34 28 22 15 10 4 5 11 19 26 31 36 38 38 39 40 41 41 41 40 39 39 38 36 35 35 34 34 33 31 31 30 29 29 28 27 27 27 28
3 3 3 4 6 5 4 5 2 1 3 3 4 5 6 6 7 5 3 3 1 0 2 3 3 4 5 7 8 9 10 9 11 14 15 15 16 17 19 21 22 26 33 38 38 39 40 38 35 30 23 16 9 3 5 11 17 23 30 35 37 38 39 40 40 40 40 39 40 40 37 35 35 34 34 33 32 31 31 30 30 29 28 28 28 28
2 3 2 3 6 5 4 5 4 3 3 2 2 3 4 5 5 4 4 3 1 1 2 3 2 3 4 6 7 8 8 8 9 12 13 14 16 18 20 22 24 25 28 32 35 36 37 37 37 34 30 24 17 11 5 3 11 17 23 28 33 37 39 39 39 39 39 39 40 40 38 36 36 35 34 34 33 32 32 32 31 30 30 30 29 29
1 3 3 2 5 6 4 4 4 4 4 3 3 3 3 3 3 3 1 1 1 0 3 3 5 5 4 5 6 7 7 8 8 10 14 16 18 19 20 21 23 23 25 28 30 31 32 34 34 34 33 30 25 20 14 8 0 8 16 21 26 31 36 39 39 37 38 39 39 38 38 38 37 36 35 34 34 33 32 32 32 31 31 30 30 30
1 2 2 1 4 3 2 3 3 5 5 5 5 4 2 1 1 0 0 1 1 1 2 2 5 6 3 5 5 6 7 8 9 12 15 17 18 19 19 20 22 22 24 26 27 27 28 30 32 32 32 31 30 27 21 15 9 3 7 15 21 25 29 35 38 38 38 38 38 37 38 38 38 37 36 34 33 33 33 33 32 32 31 31 30 30
1 2 2 1 2 2 1 1 4 5 4 3 2 3 3 2 3 1 0 1 0 1 1 1 3 3 2 3 4 5 7 9 11 12 13 14 17 19 19 19 20 21 23 25 26 26 25 26 28 30 30 30 30 30 27 20 14 10 4 8 15 22 26 29 34 37 38 38 37 36 37 38 38 38 37 35 34 33 33 33 33 33 32 32 31 30
1 2 2 2 2 3 2 2 4 4 3 2 1 2 2 2 2 0 1 2 1 1 1 1 1 3 2 2 3 5 6 7 9 10 11 12 14 17 17 18 18 20 22 24 25 25 24 23 23 25 27 28 29 30 29 23 18 14 10 5 7 15 23 27 30 35 37 38 38 37 36 37 37 38 37 36 35 33 33 33 33 32 32 32 31 31
1 2 2 1 1 3 2 2 3 3 3 1 2 1 2 2 1 1 1 2 1 0 0 1 2 3 2 2 3 4 5 6 5 6 9 11 13 15 17 18 19 19 21 24 25 24 23 22 21 21 22 24 26 28 29 26 20 16 14 9 6 8 17 25 29 32 36 37 38 37 37 36 36 37 36 36 35 35 34 34 32 31 30 31 31 32
2 2 2 0 0 1 1 2 3 3 0 2 1 1 2 3 3 2 1 2 2 1 1 2 2 2 1 2 3 4 7 7 5 2 8 12 13 15 16 17 19 20 21 23 24 24 23 22 21 20 19 20 22 25 28 28 23 19 17 13 7 5 8 17 24 29 33 36 37 37 37 37 36 35 35 35 35 36 35 34 33 32 31 31 31 30
4 3 2 1 1 1 1 2 2 1 1 1 1 1 2 2 2 3 3 4 3 0 1 0 0 2 2 3 4 7 10 8 7 6 4 11 13 14 15 16 18 19 20 22 23 23 23 22 21 20 18 17 19 22 24 27 26 22 20 17 12 7 6 7 15 23 28 31 34 36 37 36 35 35 35 35 35 36 35 34 33 32 32 33 33 31
3 3 2 1 1 1 1 2 1 2 2 4 3 3 3 2 2 1 2 3 3 1 2 0 1 2 3 4 6 9 10 6 5 7 2 10 13 14 15 15 16 17 18 20 21 20 21 21 19 19 18 16 16 18 21 24 26 23 21 19 16 13 10 8 6 14 22 26 28 32 35 36 36 35 34 35 35 35 34 33 32 32 32 33 34 34
2 1 2 2 1 1 1 2 1 2 2 3 5 4 2 2 3 1 2 2 3 2 1 1 2 4 5 6 7 10 8 4 4 3 3 12 15 15 16 16 15 16 17 18 20 20 19 20 19 18 19 17 15 15 17 21 24 24 22 19 18 16 13 10 8 5 15 23 26 29 32 34 36 36 35 36 36 35 34 33 33 32 32 32 33 34
2 1 1 2 2 2 3 2 2 3 1 3 6 7 4 3 5 3 3 3 4 3 1 2 3 5 5 6 8 9 6 4 3 1 7 15 18 17 18 19 17 17 17 17 19 20 20 20 19 19 19 18 16 15 15 17 20 23 24 21 18 16 13 10 9 2 10 21 26 28 29 31 33 35 36 37 36 35 35 34 33 32 32 32 33 34
3 1 2 4 3 3 4 3 2 3 1 3 7 8 6 4 5 4 5 2 6 4 2 0 2 4 4 6 7 6 4 3 4 7 12 16 18 18 18 19 19 19 19 18 18 19 20 20 20 19 20 21 19 17 15 15 16 19 23 23 21 19 15 11 9 4 6 14 20 25 29 30 30 32 34 36 37 37 37 36 34 34 34 33 33 34
2 1 2 3 4 5 5 5 4 3 2 4 8 11 9 5 4 5 3 3 6 5 3 2 3 4 4 6 6 5 6 7 9 13 15 15 16 18 19 18 18 19 19 19 19 18 20 21 20 20 20 20 21 20 16 15 15 16 19 22 24 25 22 16 12 8 6 7 11 18 25 27 27 27 29 32 34 34 35 36 37 37 36 35 35 35
2 2 2 3 3 3 4 4 4 4 3 7 10 11 9 5 4 3 2 4 2 4 3 3 4 4 5 8 9 10 11 12 12 15 17 17 17 18 20 20 20 20 19 20 20 19 19 21 21 20 19 19 21 21 19 16 15 14 17 21 24 27 26 22 15 10 8 8 8 12 17 22 25 26 27 29 29 30 32 34 35 36 36 35 36 36
4 3 3 4 3 2 2 4 5 4 2 12 14 8 7 6 0 3 3 1 2 3 3 4 5 5 7 9 11 14 16 17 16 16 18 20 20 19 21 21 21 21 21 21 22 20 19 20 22 21 20 18 20 21 20 18 15 14 16 20 23 25 26 25 21 14 9 8 8 9 12 16 21 23 27 28 28 28 30 33 34 35 35 36 36 37
4 4 3 3 4 4 3 5 4 3 3 16 14 5 7 10 2 4 1 2 3 4 6 6 7 8 10 11 13 16 19 21 21 19 18 21 22 22 22 23 23 22 22 22 22 21 20 21 22 22 21 19 19 20 20 19 17 14 15 18 21 24 25 25 24 19 12 7 7 7 9 13 17 20 24 26 25 24 26 31 34 36 37 37 37 37
4 4 1 1 4 4 3 4 1 4 4 17 14 4 7 10 7 6 5 5 4 6 6 6 8 10 13 14 16 18 20 21 23 23 20 21 24 25 25 25 26 25 23 23 22 21 21 21 22 23 23 21 19 20 20 20 19 16 13 14 18 22 24 24 25 22 16 10 7 6 7 10 15 19 22 23 23 22 23 28 31 33 35 38 37 37
2 3 2 0 2 3 8 9 7 5 7 16 16 9 8 7 8 6 7 8 7 7 7 7 9 11 13 15 16 18 20 20 21 23 22 21 23 25 26 27 28 27 25 24 24 22 21 22 23 23 24 22 20 19 19 19 20 18 14 12 13 17 20 23 24 23 20 16 11 8 7 8 11 16 19 21 21 22 25 27 28 28 30 32 34 36
4 7 6 3 2 3 5 7 9 11 13 16 17 15 13 13 11 8 9 9 8 8 8 8 10 12 13 15 16 17 19 19 20 22 22 22 22 23 24 25 27 28 28 26 25 24 24 24 25 25 25 24 21 20 19 19 20 19 16 13 11 13 17 20 22 23 23 20 17 13 10 9 10 13 17 19 21 25 28 29 28 28 28 28 27 30
5 9 7 6 6 6 4 2 4 7 11 15 18 18 18 17 14 11 10 10 8 8 8 8 10 11 12 14 16 17 17 18 20 21 22 22 22 22 22 23 24 28 29 28 27 26 26 27 27 26 26 26 24 21 20 19 19 20 18 15 13 13 15 17 20 23 23 23 22 19 15 13 13 14 15 18 22 27 30 31 29 28 29 28 25 26
8 9 6 5 6 7 8 8 8 7 8 15 20 21 20 19 17 14 12 10 8 8 7 8 10 12 13 15 17 17 17 18 19 20 21 23 23 22 22 23 25 27 29 29 28 28 27 27 28 28 27 26 24 23 22 20 20 20 20 18 15 14 15 16 20 23 23 22 23 23 20 17 17 17 17 18 21 26 31 33 32 30 31 32 29 28
8 6 5 4 5 7 7 8 10 7 6 9 14 15 16 15 14 14 13 10 8 8 7 9 12 13 15 17 17 16 17 18 19 20 22 23 23 23 23 24 25 28 29 29 29 29 29 28 27 28 28 26 24 24 24 22 21 21 21 20 18 16 15 15 18 21 22 21 22 24 25 23 20 19 20 20 21 25 30 33 34 32 33 35 33 32
13 10 10 8 7 8 9 10 11 10 9 8 8 9 10 11 12 13 12 10 9 8 7 10 13 15 17 18 17 16 17 19 21 22 23 23 23 24 24 24 26 27 29 28 29 30 30 29 27 28 28 27 25 25 26 25 23 22 21 21 20 19 17 15 17 19 20 21 21 24 28 28 24 21 21 21 21 23 27 31 33 33 33 34 34 35
Wind_Direction
170 168 188 191 173 172 185 201 162 103 107 96 106 98 54 333 21 309 339 192 193 205 221 218 235 248 225 186 183 183 187 195 197 194 192 191 191 192 195 197 198 201 203 204 209 212 213 214 213 213 212 211 210 210 210 210 210 209 206 205 204 201 197 196 194 192 190 188 187 188 189 187 183 182 178 176 176 172 166 163 155 152 156 157 150 144
181 190 184 168 156 165 175 162 134 122 137 129 167 129 38 249 355 10 347 355 196 213 225 215 238 252 242 211 185 181 187 198 201 200 197 194 194 194 196 199 199 201 201 200 205 211 214 216 216 215 214 213 211 209 208 211 213 212 210 208 206 204 199 197 195 194 193 192 191 191 190 189 189 187 183 181 181 179 176 171 165 163 164 161 152 143
188 196 161 155 156 133 81 122 149 132 145 155 193 224 204 228 315 36 14 26 177 212 247 194 234 254 249 223 189 187 195 203 204 205 203 196 195 196 198 199 199 199 198 198 203 208 212 216 218 219 218 215 213 210 209 211 213 215 214 212 210 208 203 199 198 197 198 198 196 195 194 193 194 192 187 184 184 185 184 177 171 170 170 165 156 145
180 180 165 162 149 148 123 133 155 136 160 191 207 230 213 151 262 164 52 43 163 224 294 175 245 265 254 223 201 202 205 209 208 208 207 200 198 199 199 200 199 198 198 199 202 205 208 211 217 221 221 219 217 215 213 212 213 216 217 215 213 211 207 204 201 200 201 202 202 202 200 197 197 196 192 190 190 189 186 180 175 175 175 171 167 158
149 125 153 162 163 179 173 150 178 202 204 210 221 240 231 193 243 232 36 11 219 232 255 246 265 271 255 227 214 208 209 213 209 205 206 204 203 202 200 201 202 201 202 202 202 204 205 208 215 221 222 221 221 219 215 214 214 216 219 218 216 216 212 208 205 203 203 204 205 206 204 202 201 199 197 196 195 190 185 180 177 180 180 176 175 172
157 125 143 155 172 188 192 186 199 217 224 229 218 224 224 213 230 234 335 321 263 192 166 265 263 144 77 240 221 194 201 213 206 201 206 205 201 201 201 202 203 204 205 205 205 204 205 209 216 222 223 223 224 222 218 216 215 217 220 220 218 218 217 213 209 206 206 206 207 209 209 207 204 202 201 200 197 192 185 179 178 183 185 181 180 178
141 136 155 161 167 176 199 213 198 200 224 241 206 202 203 204 217 227 239 272 267 89 86 278 273 279 59 339 245 194 198 209 206 205 210 206 201 202 203 203 203 205 205 206 207 206 207 209 215 221 223 224 224 224 221 219 218 218 218 220 220 219 219 218 213 210 210 210 210 213 214 214 210 207 204 200 197 193 187 183 182 184 187 186 183 181
150 142 158 156 159 173 201 215 189 190 216 220 155 175 187 198 206 209 212 228 293 352 218 226 256 284 307 30 7 241 214 214 213 217 217 213 209 206 206 205 203 205 205 204 205 207 209 211 216 220 222 223 224 224 223 221 220 219 218 218 219 220 220 221 217 214 213 214 214 214 216 217 215 212 207 201 198 196 193 189 187 187 188 188 186 185
147 161 171 168 169 187 207 214 176 184 217 219 154 163 174 190 194 184 192 185 58 289 231 151 188 252 297 39 26 16 286 287 269 252 236 227 222 215 211 209 206 206 206 206 206 208 211 215 219 221 223 224 224 225 224 223 222 221 220 219 219 220 221 221 221 218 217 218 218 218 217 218 216 213 208 204 202 201 199 194 191 189 189 191 190 188
71 111 131 145 156 201 229 307 175 187 210 166 152 153 132 139 148 157 192 146 120 243 226 156 188 237 21 37 25 30 17 355 334 308 261 236 230 226 221 215 211 209 208 209 209 210 214 220 222 222 224 225 224 225 226 225 224 223 223 222 220 220 220 221 222 221 221 220 221 222 220 219 218 214 209 207 206 204 202 199 195 191 191 193 193 192
77 97 93 81 40 299 271 331 201 197 183 120 148 151 117 110 121 117 89 120 157 221 226 183 200 227 275 49 31 27 10 353 342 342 323 260 235 229 227 223 218 214 211 211 212 212 215 221 224 222 223 225 225 226 227 226 226 225 225 225 223 222 222 221 221 222 223 223 223 225 224 223 222 219 214 211 209 207 205 202 197 194 192 193 194 196
69 83 62 40 22 351 267 150 70 196 194 150 162 159 143 127 134 132 102 158 203 198 223 215 198 214 222 54 28 18 9 1 356 351 345 329 282 241 228 224 221 219 217 214 213 213 212 217 221 222 222 225 225 226 227 227 227 227 227 227 227 226 224 223 222 221 223 224 225 226 227 226 225 224 221 215 212 211 210 206 200 196 195 196 197 199
80 70 5 319 32 10 344 177 117 124 186 201 188 176 175 154 159 179 161 179 206 174 75 222 196 190 107 69 29 22 16 7 6 0 349 346 336 306 254 229 220 217 216 216 215 214 212 214 219 222 222 224 225 226 227 227 228 229 229 229 230 229 226 225 224 222 222 223 226 227 228 228 227 227 226 222 217 214 214 211 205 201 200 201 201 202
120 116 13 1 10 3 358 191 149 126 164 184 185 184 185 174 173 184 167 152 199 177 110 216 208 174 120 78 21 30 26 10 10 10 4 359 350 343 322 249 224 218 216 216 215 214 216 218 220 223 223 225 226 227 228 227 228 230 230 230 231 231 229 227 226 225 223 223 225 227 228 229 229 228 228 226 222 217 216 215 212 209 208 207 207 208
142 141 25 10 343 353 8 21 344 335 161 159 177 211 198 189 185 186 179 170 171 150 107 160 205 176 139 106 26 34 30 20 19 17 17 16 9 4 4 335 236 225 221 219 216 215 219 223 224 223 224 226 226 227 227 227 228 229 230 230 230 231 231 229 228 227 225 224 225 227 228 229 230 229 229 228 225 222 218 218 218 217 216 215 215 215
69 95 2 337 297 331 3 5 340 300 186 113 47 237 215 224 236 143 162 168 153 142 123 164 173 59 125 115 43 27 25 25 22 21 22 19 14 15 17 12 345 266 235 225 220 218 221 225 226 224 224 226 226 227 227 227 229 229 229 230 230 231 231 230 230 229 228 227 226 227 228 229 229 229 229 229 227 225 222 221 221 221 222 221 221 221
115 100 358 331 253 44 357 344 349 5 228 161 167 185 77 353 316 93 126 57 140 176 166 153 118 68 138 131 26 17 20 25 23 22 23 20 18 19 15 8 360 343 296 250 232 223 221 225 227 225 224 226 226 226 227 228 230 230 230 230 230 230 231 231 231 230 230 230 229 229 229 229 229 228 229 229 228 226 224 223 222 223 223 222 223 223
29 128 51 358 3 3 348 321 163 33 8 221 173 124 90 356 301 359 153 147 182 189 151 79 95 67 116 208 11 11 16 22 21 21 24 24 24 21 14 6 360 354 332 286 254 235 225 224 227 226 225 226 227 228 228 230 231 231 231 231 230 230 230 230 231 231 231 231 231 231 229 229 229 228 228 229 229 229 227 225 224 223 221 220 221 222
338 137 118 23 335 332 350 348 174 24 21 40 88 90 94 199 180 193 182 170 185 186 134 105 109 62 39 8 6 8 11 14 15 17 21 23 23 20 15 9 3 0 352 319 272 248 232 224 226 227 225 225 228 229 230 231 231 230 231 232 231 231 231 230 231 231 232 232 232 232 231 229 229 229 229 230 230 230 230 228 226 223 221 220 220 221
316 23 138 31 339 306 1 34 10 353 14 61 107 87 359 325 200 187 182 185 200 180 146 142 137 71 40 13 8 11 9 7 10 12 16 19 20 20 18 14 9 5 2 352 305 255 239 226 224 226 225 225 227 230 231 230 230 230 231 232 232 232 232 232 231 231 231 231 232 233 233 231 230 230 230 230 230 230 230 229 228 225 223 221 221 223
304 17 110 17 360 309 50 42 29 13 12 24 70 48 27 356 292 140 77 20 292 195 164 159 143 83 48 15 9 13 11 10 12 10 12 18 20 23 22 19 17 13 9 9 3 281 240 230 226 225 225 227 228 230 230 229 229 230 231 232 233 233 233 232 232 232 232 232 232 233 233 233 232 231 232 231 231 230 230 230 230 229 227 225 225 225
348 26 67 37 37 78 90 55 14 21 25 35 47 32 8 358 223 190 170 119 6 324 177 158 138 95 52 18 14 18 15 15 14 8 11 16 17 21 24 25 25 22 17 19 27 42 189 225 227 224 224 227 229 229 229 229 229 230 231 233 233 233 233 233 232 233 232 232 233 233 234 234 234 233 233 233 232 231 230 231 231 231 230 230 229 229
7 59 65 73 59 79 117 113 355 360 14 41 48 32 7 6 338 250 188 152 123 75 64 110 117 112 70 28 24 22 17 17 17 13 13 14 13 15 22 29 33 32 28 28 34 47 70 139 205 215 221 229 231 230 229 228 229 230 232 234 234 234 235 234 234 234 233 233 234 234 235 235 235 235 235 235 235 233 231 231 231 232 233 234 234 234
4 66 68 89 82 147 193 197 347 1 343 50 42 24 16 15 350 330 14 94 128 112 138 146 126 126 89 38 30 27 22 23 22 18 15 14 13 14 15 26 35 37 36 35 36 40 53 85 131 169 210 227 229 228 227 227 229 232 233 234 234 236 237 236 236 236 235 234 234 235 236 236 236 237 236 237 237 235 234 232 232 232 233 235 237 238
15 6 89 126 134 170 201 202 187 83 37 51 33 12 16 20 9 349 350 335 124 66 352 186 134 118 93 47 36 32 26 24 23 19 18 16 14 13 10 19 32 38 39 39 38 37 40 50 61 63 78 208 220 225 228 229 231 233 234 235 236 236 238 237 237 238 237 236 235 235 236 236 236 238 238 238 238 237 237 236 235 234 233 235 237 239
69 37 354 176 177 190 189 160 162 121 43 60 22 6 14 17 8 357 232 350 127 85 354 38 105 103 90 52 38 34 24 20 19 15 17 17 13 13 12 14 27 37 40 40 39 39 38 37 38 38 42 80 191 216 229 233 234 234 234 236 237 237 238 238 238 239 239 238 236 236 237 237 237 238 239 239 239 239 239 239 239 238 236 236 237 239
109 67 28 27 64 99 97 78 40 346 46 72 22 9 10 11 5 356 247 73 82 110 82 63 36 32 56 40 30 30 24 15 11 9 13 13 10 13 15 15 21 33 40 40 38 38 39 37 36 36 36 43 89 187 215 226 232 233 234 236 237 237 238 239 239 240 240 240 238 238 239 239 239 239 240 241 241 241 241 241 241 241 241 240 240 241
125 85 45 52 64 69 76 76 60 40 59 40 10 5 0 2 3 7 43 60 30 209 124 84 1 348 27 26 20 26 25 18 8 5 7 7 8 11 16 19 21 28 38 42 39 35 36 37 36 35 34 35 42 72 182 206 217 225 233 238 238 237 238 240 241 241 241 241 240 241 241 241 241 241 242 243 243 243 243 243 244 244 243 243 243 243
105 85 59 74 82 84 73 66 55 47 52 18 339 346 346 354 1 9 39 51 315 300 57 63 45 31 18 9 15 23 21 20 11 1 1 7 12 14 16 21 21 20 28 39 41 36 33 33 34 33 32 33 35 40 53 184 207 215 225 233 237 239 239 240 241 241 241 241 241 243 244 243 242 243 243 244 244 244 244 245 245 245 245 245 245 245
62 90 85 100 99 89 59 47 35 17 8 335 320 329 326 336 348 339 15 69 181 184 29 54 104 87 23 350 8 18 14 17 15 10 11 13 14 15 15 18 19 16 18 28 37 38 34 31 30 29 29 29 29 29 29 30 77 218 221 223 230 237 240 241 243 242 240 241 244 246 246 245 244 244 244 245 245 245 245 245 246 246 246 246 246 246
339 96 93 122 121 104 43 22 7 352 343 323 327 354 4 158 143 229 151 109 151 153 62 84 129 113 35 350 360 6 3 9 16 20 19 14 12 15 16 14 13 13 13 18 27 34 35 32 29 27 26 25 24 22 19 18 18 349 236 223 223 228 235 241 245 244 241 243 246 246 245 246 246 245 246 246 246 247 246 246 247 247 247 247 248 248
68 116 121 163 156 141 116 345 333 333 321 295 318 36 56 121 136 116 105 100 136 131 96 181 172 134 61 3 6 4 356 1 12 19 19 15 12 12 14 13 10 8 8 11 17 25 31 32 31 28 24 22 20 18 14 11 7 359 321 239 229 225 226 234 242 244 243 245 246 246 245 246 246 246 247 247 247 248 248 248 248 248 249 249 249 249
103 133 133 185 188 140 144 284 307 303 266 225 135 58 35 57 78 69 132 112 89 278 266 264 143 108 93 31 20 11 356 356 5 12 13 16 15 11 9 9 7 5 5 7 11 16 21 26 29 28 24 21 20 17 13 9 3 355 349 323 262 239 228 226 234 241 244 245 245 245 246 246 246 248 248 249 249 249 249 249 249 249 250 250 250 251
160 138 124 206 187 134 160 275 274 249 234 140 78 6 293 302 306 259 147 109 126 222 38 56 93 104 100 49 23 358 340 333 342 8 16 17 16 11 6 3 2 2 2 4 8 10 12 16 21 26 25 19 18 17 11 8 6 356 348 351 341 277 244 231 230 235 240 244 245 246 246 246 247 248 250 250 250 250 249 249 249 250 250 250 251 252
176 149 131 174 172 139 201 245 224 213 150 49 33 284 269 284 275 257 200 143 180 170 113 125 117 95 52 12 356 330 321 303 271 314 20 19 15 10 5 360 358 357 357 360 3 3 6 8 9 16 21 14 9 11 8 6 6 0 350 346 352 341 279 248 236 233 236 241 244 245 245 246 248 249 251 251 250 250 250 250 250 250 249 249 250 250
190 174 150 154 176 160 189 208 218 4 22 300 250 190 201 227 223 227 212 180 184 283 352 251 38 24 344 337 335 325 322 305 248 227 352 11 10 5 1 357 353 351 351 354 356 357 360 2 360 2 8 7 2 3 5 5 4 3 358 348 338 346 343 282 243 234 234 237 241 244 245 247 249 250 251 251 250 250 251 251 252 251 250 250 250 250
194 186 187 209 215 212 220 224 282 330 240 206 175 161 182 170 135 214 239 174 148 19 348 343 15 3 345 343 341 330 324 309 227 206 302 1 0 355 351 349 347 347 346 347 350 352 353 353 352 352 355 360 1 2 4 5 2 1 3 358 345 332 333 332 281 237 231 231 236 240 244 247 249 251 251 251 250 251 251 252 252 252 252 251 250 250
170 199 221 228 210 177 241 254 240 241 221 174 154 149 145 126 116 98 281 196 129 94 66 72 35 12 5 357 348 340 326 284 218 186 6 352 348 346 342 340 340 341 340 340 342 345 347 347 347 347 349 351 358 4 3 2 1 358 359 4 360 343 329 327 333 272 226 227 231 234 238 243 246 248 250 250 251 252 252 252 252 252 251 251 251 250
113 58 198 225 222 189 221 241 220 221 211 130 153 154 146 170 170 179 271 233 148 129 101 61 14 360 359 351 347 345 330 282 248 317 342 336 335 335 334 331 331 331 332 334 335 335 339 342 342 342 344 344 348 358 1 357 357 356 356 0 3 356 343 319 322 338 199 219 230 233 236 241 244 245 247 248 250 251 252 253 253 253 253 253 253 253
140 125 191 221 222 201 217 242 246 245 251 140 159 161 154 167 182 220 276 225 155 174 213 198 334 333 334 331 332 331 314 293 292 303 313 318 321 321 321 321 323 323 324 327 327 326 328 333 336 338 341 342 341 347 354 354 351 349 351 357 1 358 352 334 324 328 197 215 226 229 234 238 242 244 246 247 249 250 252 253 254 254 254 254 254 255
153 174 201 224 225 213 219 238 259 267 247 175 172 168 158 156 199 241 274 127 155 198 218 218 275 299 299 303 305 289 279 280 286 294 301 306 309 309 308 309 312 314 316 317 319 319 320 323 328 333 336 339 340 341 345 351 353 346 341 347 352 352 349 343 332 318 286 255 233 229 232 234 237 241 244 246 248 250 251 253 253 254 255 254 255 256
176 173 187 219 229 219 226 244 266 279 237 170 160 159 163 185 234 233 90 83 163 224 224 228 261 282 283 287 288 282 283 286 285 290 296 298 301 302 302 302 301 302 306 308 310 314 316 316 319 324 329 335 338 338 339 342 347 343 332 330 336 340 342 340 332 317 303 291 267 248 240 235 236 241 243 246 249 251 252 252 252 253 254 253 255 256
178 188 198 198 188 176 220 228 244 286 179 149 145 150 186 206 203 74 90 49 284 277 282 271 272 281 282 285 288 288 291 294 291 290 294 296 297 297 298 298 296 295 300 303 304 309 312 311 312 315 321 328 333 335 336 335 336 338 332 326 326 330 334 334 329 319 308 298 290 279 258 241 239 243 245 246 247 249 253 254 252 251 251 251 252 253
185 202 207 193 184 185 201 199 210 324 154 161 160 162 198 203 224 22 10 264 254 264 283 284 282 289 291 291 291 291 293 294 294 294 294 295 297 296 296 296 293 290 291 294 297 300 304 307 308 308 311 319 326 331 334 332 331 333 330 324 322 323 327 330 327 320 313 301 291 287 272 256 250 249 247 245 243 245 251 254 252 250 249 248 248 250
202 197 192 220 200 209 248 229 243 355 178 183 187 164 164 198 241 281 281 277 263 256 267 272 278 291 296 294 292 292 291 292 294 296 295 294 296 296 294 294 293 290 287 287 289 293 297 300 302 302 304 309 315 323 329 329 328 328 326 322 320 318 320 325 325 322 319 311 293 280 274 265 259 257 255 251 247 245 249 253 252 249 247 246 245 246
208 165 146 229 200 245 269 253 246 266 219 201 202 190 177 219 258 263 268 275 268 266 272 272 280 291 295 294 292 290 291 292 293 296 296 294 294 295 295 294 293 291 287 283 282 284 287 291 294 296 298 301 305 313 320 325 325 322 321 323 321 314 314 319 322 322 321 317 303 285 275 271 263 259 259 258 255 250 247 249 252 250 247 246 245 244
198 186 195 214 183 204 242 226 220 233 226 215 215 215 227 252 259 253 265 268 261 272 282 281 289 297 298 298 296 291 291 294 294 294 295 293 293 294 294 292 292 292 289 283 279 279 281 284 288 292 294 295 299 303 309 317 320 318 316 318 318 309 306 311 318 321 322 319 311 296 280 280 279 266 257 254 252 249 245 245 247 248 248 246 242 241
178 182 201 220 209 212 241 233 216 231 230 224 225 228 238 249 249 246 254 253 251 270 279 281 295 302 302 303 301 294 291 292 292 293 294 292 292 293 291 290 291 293 291 285 279 278 278 279 282 286 288 290 292 296 300 307 313 314 312 311 308 300 294 298 307 315 319 319 314 305 292 284 285 279 265 253 248 247 246 244 244 245 247 248 245 242
145 168 189 203 209 233 262 255 233 241 249 236 233 236 242 248 250 245 240 239 247 263 274 288 302 309 308 309 307 299 292 291 292 292 293 292 292 292 291 290 290 291 291 288 282 278 276 275 277 280 282 283 286 290 293 298 306 310 310 309 306 297 288 286 294 304 312 315 313 310 303 292 285 283 278 265 253 247 245 244 244 243 243 245 246 247
159 177 174 172 207 231 245 228 211 225 264 246 233 237 241 239 234 227 223 230 245 257 276 298 308 313 314 314 311 302 294 293 294 293 292 292 293 293 291 290 289 289 288 287 284 280 275 272 273 275 277 278 280 283 287 292 299 305 307 307 306 301 291 281 280 289 301 306 307 309 308 302 293 288 285 277 264 254 248 244 243 244 246 245 245 247
201 203 187 192 221 231 236 233 219 224 254 263 248 238 231 221 214 212 218 231 243 254 284 304 311 316 317 315 312 302 295 295 295 294 293 292 292 293 293 289 287 286 285 284 282 279 275 271 269 270 273 274 276 279 281 286 292 298 302 304 304 303 296 280 269 275 289 297 298 302 307 307 302 295 289 282 274 267 259 250 244 242 246 250 251 249